GW6345 Weather Reports


time (UTC)temp
C
wind
direction
speed
KPH
gust
KPH
rain 1hr
cm
rain 24hr
cm
rain mn
cm
humidity
%
barometer
mb
20260510191536 27 191 4.8 11.3 0.00 1.30 0.00 72 1015.1
20260510190026 27 199 3.2 14.5 0.00 1.45 0.00 75 1015.2
20260510184530 27 145 6.4 9.7 0.00 1.68 0.00 74 1015.5
20260510183014 27 85 3.2 11.3 0.00 1.80 0.00 76 1015.8
20260510181518 26 154 3.2 14.5 0.00 1.91 0.00 76 1015.9
20260510180025 26 96 3.2 8.0 0.00 1.98 0.00 75 1016.1
20260510174507 26 93 3.2 6.4 0.00 2.03 0.00 77 1016.1
20260510173011 26 79 4.8 11.3 0.00 2.08 0.00 78 1016.2
20260510171519 26 48 1.6 8.0 0.00 2.16 0.00 77 1016.4
20260510170027 26 83 1.6 8.0 0.00 2.21 0.00 72 1016.4
20260510164525 26 53 4.8 8.0 0.00 2.36 0.00 73 1016.5
20260510163029 26 155 4.8 8.0 0.00 2.77 0.00 77 1016.6
20260510161515 25 255 0.0 4.8 0.00 2.90 0.00 77 1016.6
20260510160020 25 141 1.6 4.8 0.00 3.45 0.00 78 1016.7
20260510154539 23 297 3.2 4.8 0.00 3.53 0.00 81 1016.8
20260510153029 23 246 0.0 3.2 0.00 3.84 0.00 82 1016.8
20260510151528 22 313 0.0 3.2 0.00 3.94 0.00 85 1016.7
20260510150028 21 175 4.8 8.0 0.00 4.04 0.00 88 1016.6
20260510144534 21 324 1.6 6.4 0.00 4.04 0.00 90 1016.9
20260510143036 21 6 0.0 8.0 0.00 4.11 0.00 91 1017.0
20260510141526 21 148 1.6 4.8 0.00 4.34 0.00 94 1016.8
20260510140030 20 150 0.0 4.8 0.00 4.57 0.00 94 1016.9
20260510134527 19 84 1.6 4.8 0.00 4.62 0.00 94 1016.8
20260510133024 19 338 1.6 4.8 0.00 4.70 0.00 94 1016.5
20260510131534 19 144 0.0 3.2 0.00 4.83 0.00 94 1016.3
20260510130026 19 115 0.0 3.2 0.00 5.05 0.00 94 1016.1
20260510124526 18 149 0.0 3.2 0.00 5.56 0.00 94 1016.1
20260510123028 18 171 0.0 4.8 0.00 7.37 0.00 94 1015.8
20260510121523 18 157 0.0 4.8 0.00 8.26 0.00 94 1015.6
20260510120030 18 65 1.6 6.4 0.00 8.31 0.00 94 1015.2
20260510114526 18 42 0.0 3.2 0.00 8.31 0.00 94 1015.0
20260510113020 18 49 0.0 4.8 0.00 8.31 0.00 94 1014.6
20260510111522 18 49 1.6 3.2 0.00 8.31 0.00 94 1014.2
20260510110033 18 117 0.0 3.2 0.00 8.31 0.00 94 1013.9
20260510104511 18 333 0.0 4.8 0.00 8.31 0.00 94 1013.6
20260510103018 18 67 3.2 4.8 0.00 8.31 0.00 94 1013.5
20260510101523 18 67 0.0 4.8 0.00 8.31 0.00 94 1013.4
20260510100027 18 74 0.0 0.0 0.00 8.31 0.00 94 1013.2
20260510094543 18 77 1.6 4.8 0.00 8.31 0.00 94 1012.9
20260510093016 18 96 0.0 4.8 0.00 8.31 0.00 94 1012.9
20260510091525 18 92 0.0 4.8 0.00 8.31 0.00 94 1012.9
20260510090026 18 333 0.0 3.2 0.00 8.31 0.00 94 1013.1
20260510084507 18 69 1.6 4.8 0.00 8.31 0.00 94 1013.1
20260510083012 18 71 1.6 4.8 0.00 8.33 0.00 94 1013.1
20260510081516 18 86 0.0 3.2 0.00 8.51 0.00 94 1012.9
20260510080023 18 360 0.0 1.6 0.00 8.71 0.00 94 1012.7
20260510074526 18 54 0.0 1.6 0.00 9.07 0.00 93 1012.5
20260510073009 18 25 0.0 3.2 0.00 9.25 0.00 93 1012.7
20260510071516 19 59 0.0 3.2 0.00 9.35 0.00 93 1012.6
20260510070023 19 41 0.0 3.2 0.00 9.35 0.00 94 1012.5
20260510064525 19 47 0.0 1.6 0.00 9.37 0.00 94 1012.6
20260510063027 19 103 0.0 1.6 0.00 9.40 0.00 94 1012.8
20260510061510 19 136 0.0 0.0 0.00 9.42 0.00 93 1012.9
20260510060016 19 136 0.0 0.0 0.00 9.42 0.00 93 1012.9
20260510054520 18 136 0.0 0.0 0.00 9.42 0.00 93 1012.9
20260510053044 18 136 0.0 0.0 0.00 9.42 0.00 93 1012.9
20260510051527 18 136 0.0 0.0 0.00 9.65 0.00 93 1012.9
20260510050013 19 136 0.0 0.0 0.00 10.01 0.00 93 1012.9
20260510044520 19 144 0.0 0.0 0.00 10.41 10.01 93 1012.8
20260510043037 19 148 0.0 0.0 0.00 10.41 10.01 93 1012.8
20260510041528 20 148 0.0 0.0 0.00 10.41 10.01 93 1012.5
20260510040035 20 329 0.0 0.0 0.00 10.41 10.01 93 1013.0
20260510034517 20 153 3.2 6.4 0.00 10.41 10.01 93 1012.3
20260510033020 20 141 0.0 3.2 0.00 10.41 10.01 93 1013.4
20260510031525 20 137 0.0 1.6 0.00 10.41 10.01 93 1013.6
20260510030028 20 134 0.0 1.6 0.00 10.41 10.01 93 1013.3
20260510024528 20 143 0.0 1.6 0.00 10.41 10.01 93 1013.0
20260510023018 20 131 0.0 4.8 0.00 10.41 10.01 93 1012.5
20260510021537 20 122 0.0 4.8 0.00 10.41 10.01 93 1012.7
20260510020026 20 158 1.6 4.8 0.03 10.41 10.01 93 1012.9
20260510014532 20 290 1.6 3.2 0.03 10.41 10.01 93 1013.0
20260510013028 20 336 1.6 6.4 0.15 10.41 10.01 93 1012.1
20260510011530 20 172 1.6 6.4 0.18 10.41 10.01 93 1011.7
20260510010023 20 136 3.2 9.7 0.15 10.39 9.98 93 1011.7
20260510004531 20 152 3.2 8.0 0.20 10.39 9.98 93 1011.7
20260510003028 20 140 0.0 3.2 0.10 10.29 9.86 93 1012.2
20260510001515 20 283 1.6 9.7 0.08 10.26 9.83 93 1011.9
20260510000035 20 136 3.2 8.0 0.08 10.26 9.83 93 1011.1
20260509234523 20 125 0.0 3.2 0.05 10.21 9.78 93 1012.0
20260509233006 20 128 1.6 4.8 0.05 10.19 9.75 93 1011.5
20260509231514 20 147 1.6 3.2 0.08 10.19 9.75 93 1012.1
20260509230018 20 117 0.0 4.8 0.13 10.19 9.75 93 1011.8
20260509224527 20 115 0.0 3.2 0.18 10.19 9.73 93 1011.7
20260509223008 20 139 1.6 4.8 0.18 10.21 9.70 93 1011.3
20260509221511 20 124 1.6 6.4 0.18 10.26 9.68 93 1011.0
20260509220020 20 158 0.0 4.8 0.13 10.29 9.63 93 1012.0
20260509214521 20 144 1.6 4.8 0.05 10.24 9.55 93 1011.3
20260509213029 20 136 1.6 6.4 0.10 10.24 9.53 92 1011.3
20260509211508 19 245 0.0 3.2 0.18 10.24 9.50 92 1011.3
20260509210014 19 295 0.0 1.6 0.30 10.29 9.50 92 1010.9
20260509204519 19 150 0.0 1.6 0.43 10.44 9.50 92 1010.4
20260509203022 19 64 0.0 6.4 0.51 10.52 9.42 92 1011.3
20260509201528 19 129 4.8 9.7 0.61 10.69 9.32 92 1011.2
20260509200010 19 168 0.0 6.4 0.64 10.79 9.19 93 1012.0
20260509194530 19 115 0.0 4.8 0.74 10.79 9.07 93 1013.1
20260509193026 19 145 1.6 6.4 0.71 10.74 8.92 93 1012.5